Weather History for Newark, NJ

Change the Weather History Date:

Tuesday, October 25, 2011

  Actual Average Record
Temperature  
Mean Temperature 58 °F 54 °F  
Max Temperature 66 °F 62 °F 79 °F (1963)
Min Temperature 50 °F 45 °F 33 °F (1939)
Degree Days  
Heating Degree Days 7 12  
Month to date heating degree days 113 201  
Since 1 July heating degree days 132 246  
Cooling Degree Days 0 0  
Month to date cooling degree days 22 14  
Year to date cooling degree days 1585 1188  
Growing Degree Days 8 (Base 50)    
Moisture  
Dew Point 37 °F    
Average Humidity 50    
Maximum Humidity 77    
Minimum Humidity 22    
Precipitation  
Precipitation 0.00 in 0.12 in 1.66 in (1980)
Month to date precipitation 3.36 2.92  
Year to date precipitation 59.43 38.11  
Snow  
Snow 0.00 in 0.00 in T in (1960)
Month to date snowfall 0.0 0.0  
Since 1 July snowfall T 0.0  
Snow Depth 0.00 in    
Sea Level Pressure  
Sea Level Pressure 30.02 in    
Wind  
Wind Speed 10 mph (West)    
Max Wind Speed 26 mph    
Max Gust Speed 33 mph    
Visibility 10 miles    
Events      
T = Trace of Precipitation, MM = Missing Value Source: NWS Daily Summary

Daily Weather History Graph

Daily Weather History Graph

Search for Another Location

Airport:

Trip Planner

Search our weather history database for the weather conditions in past years. The results will help you decide how hot, cold, wet, or windy it might be!

Date:

Astronomy

Oct. 25, 2011 Rise Set
Actual Time 7:18 AM EDT 6:02 PM EDT
Civil Twilight 6:50 AM EDT 6:30 PM EDT
Nautical Twilight 6:18 AM EDT 7:02 PM EDT
Astronomical Twilight 5:46 AM EDT 7:34 PM EDT
Moon 5:47 AM EDT (10/25) 5:02 PM EDT (10/25)
Length of Visible Light 11h 39m
Length of Day
10h 43m
Waning Crescent, 2% of the Moon is Illuminated
Oct 25
Waning Crescent
Oct 26
New
Nov 2
First Quarter
Nov 10
Full
Nov 18
Last Quarter

Hourly Weather History & Observations

Time (EDT) Temp. Dew Point Humidity Pressure Visibility Wind Dir Wind Speed Gust Speed Precip Events Conditions
12:51 AM 57.0 °F 50.0 °F 77% 29.97 in 10.0 mi West 12.7 mph - 0.00 in   Mostly Cloudy
1:51 AM 55.0 °F 48.0 °F 77% 29.98 in 10.0 mi West 9.2 mph - N/A   Partly Cloudy
2:51 AM 54.0 °F 46.0 °F 75% 29.99 in 10.0 mi West 6.9 mph - N/A   Clear
3:51 AM 53.1 °F 45.0 °F 74% 29.99 in 10.0 mi WNW 10.4 mph - N/A   Clear
4:51 AM 52.0 °F 44.1 °F 74% 30.00 in 10.0 mi West 6.9 mph - N/A   Clear
5:51 AM 51.1 °F 44.1 °F 77% 30.01 in 10.0 mi West 9.2 mph - N/A   Clear
6:51 AM 51.1 °F 43.0 °F 74% 30.03 in 10.0 mi West 8.1 mph - N/A   Clear
7:51 AM 52.0 °F 43.0 °F 71% 30.05 in 10.0 mi WSW 8.1 mph - N/A   Clear
8:51 AM 53.1 °F 43.0 °F 69% 30.07 in 10.0 mi West 10.4 mph - N/A   Clear
9:51 AM 57.0 °F 39.9 °F 53% 30.06 in 10.0 mi WNW 15.0 mph 19.6 mph N/A   Partly Cloudy
10:51 AM 59.0 °F 37.0 °F 44% 30.06 in 10.0 mi WNW 11.5 mph 23.0 mph N/A   Partly Cloudy
11:51 AM 61.0 °F 35.1 °F 38% 30.04 in 10.0 mi West 12.7 mph 23.0 mph N/A   Partly Cloudy
12:32 PM 62.6 °F 32.0 °F 32% 30.03 in 10.0 mi WNW 18.4 mph 25.3 mph N/A   Clear
12:51 PM 64.0 °F 30.9 °F 29% 30.02 in 10.0 mi WNW 16.1 mph 25.3 mph N/A   Clear
1:51 PM 64.9 °F 28.9 °F 26% 30.01 in 10.0 mi WNW 21.9 mph 29.9 mph N/A   Clear
2:51 PM 64.9 °F 28.9 °F 26% 30.01 in 10.0 mi NNW 16.1 mph - N/A   Clear
3:51 PM 64.9 °F 25.0 °F 22% 30.00 in 10.0 mi NW 20.7 mph 28.8 mph N/A   Scattered Clouds
4:51 PM 64.9 °F 28.0 °F 25% 30.00 in 10.0 mi WNW 15.0 mph - N/A   Scattered Clouds
5:51 PM 63.0 °F 28.9 °F 28% 30.02 in 10.0 mi West 11.5 mph 21.9 mph N/A   Partly Cloudy
6:51 PM 62.1 °F 30.9 °F 31% 30.04 in 10.0 mi WNW 8.1 mph 19.6 mph N/A   Partly Cloudy
7:51 PM 61.0 °F 30.9 °F 32% 30.04 in 10.0 mi WSW 6.9 mph - N/A   Partly Cloudy
8:51 PM 59.0 °F 33.1 °F 38% 30.04 in 10.0 mi WSW 8.1 mph - N/A   Partly Cloudy
9:51 PM 55.9 °F 34.0 °F 44% 30.03 in 10.0 mi SW 5.8 mph - N/A   Clear
10:51 PM 52.0 °F 37.9 °F 59% 30.04 in 10.0 mi SSW 3.5 mph - N/A   Scattered Clouds
11:51 PM 53.1 °F 37.9 °F 57% 30.05 in 10.0 mi Calm Calm - N/A   Mostly Cloudy